Flag for Germany Weather past 2 weeks in Husum, Schleswig-Holstein, Germany

Now
55 °F

Light rain. Partly sunny.


Feels Like: 50 °F
Forecast: 53 / 61 °F
Wind: 25 mph from West

Location: Schleswig-Jagel

Current Time: Jul 30, 2015 at 11:16:35 AM

Latest Report: Jul 30, 2015 at 10:20 AM


Visibility: 5 mi

Pressure: 29.68 "Hg

Humidity: 94%

Dew point: 54 °F

Location of HusumLocation

Historic Weather in Husum — Graph

°F

Husum temperature yesterday

Maximum temperature yesterday: 61 °F (at 11:20 AM)
Minimum temperature yesterday: 54 °F (at 12:50 PM)
Average temperature yesterday: 57 °F

Past Weeks' High & Low Weather Summary

 TemperatureHumidityPressure
High77 °F (Jul 17, 6:20 PM)100% (Jul 20, 4:20 AM)30.12 "Hg (Jul 20, 4:20 AM)
Low48 °F (Jul 24, 4:20 AM)40% (Jul 15, 1:20 PM)29.39 "Hg (Jul 28, 3:20 AM)
Average61 °F80%29.80 "Hg
* Reported Jul 15 9:20 AM — Jul 30 9:20 AM, Husum, Weather by CustomWeather, © 2015

Note: Actual official high and low records may vary slightly from our data, if they occured in-between our weather recording intervals... More about our weather records

Advertising

Husum weather history for previous 24 hours

 ConditionsComfort  
Time TempWeatherWind HumidityBarometerVisibility
9:20 AM
Thu, Jul 30
55 °FDrizzle. Fog.28 mph94%29.65 "Hg3 mi
8:20 AM55 °FCool.24 mph94%29.62 "Hg1 mi
7:20 AM55 °FLight rain. Partly sunny.26 mph94%29.59 "Hg4 mi
6:20 AM57 °FCool.23 mph88%29.59 "Hg2 mi
5:20 AM57 °FCool.23 mph88%29.56 "Hg1 mi
4:20 AM55 °FCool.20 mph100%29.56 "Hg1 mi
3:20 AM57 °FCool.22 mph94%29.53 "Hg2 mi
2:20 AM55 °FCool.23 mph94%29.53 "Hg2 mi
1:20 AM57 °FCool.25 mph88%29.53 "Hg1 mi
12:20 AM55 °FCool.24 mph94%29.53 "Hg1 mi
11:20 PM
Wed, Jul 29
55 °FCool.18 mph94%29.50 "Hg2 mi
10:20 PM57 °FCool.22 mph88%29.47 "Hg2 mi
9:20 PM55 °FCool.14 mph94%29.45 "Hg2 mi
8:20 PM54 °FCool.18 mph94%29.47 "Hg1 mi
7:20 PM54 °FCool.18 mph94%29.50 "Hg2 mi
6:20 PM57 °FCool.22 mph82%29.50 "Hg1 mi
5:20 PM57 °FCool.22 mph82%29.53 "Hg3 mi
4:20 PM59 °FScattered clouds.17 mph77%29.53 "HgN/A
3:20 PM55 °FScattered clouds.18 mph82%29.53 "HgN/A
2:20 PM61 °FBroken clouds.20 mph77%29.53 "HgN/A
1:20 PM55 °FBroken clouds.12 mph82%29.53 "HgN/A
12:50 PM54 °FThunderstorms. Broken clouds.17 mph88%29.56 "Hg6 mi
12:20 PM59 °FSprinkles. Broken clouds.21 mph72%29.53 "Hg5 mi
11:20 AM61 °FBroken clouds.21 mph77%29.53 "HgN/A
Weather by CustomWeather, © 2015

See weather overviewHow to use our weather pages